DW5575 Weather Reports


time (UTC)temp
F
wind
direction
speed
knots
gust
knots
rain 1hr
in
rain 24hr
in
rain mn
in
humidity
%
barometer
mb
20260506044510 77 13 0.0 1.7 0.00 0.00 0.00 83 1009.3
20260506043008 77 271 0.0 3.5 0.00 0.00 0.00 82 1009.3
20260506041508 77 273 0.0 1.7 0.00 0.00 0.00 82 1009.0
20260506040008 78 330 0.0 2.6 0.00 0.00 0.00 81 1008.9
20260506034507 78 208 0.0 1.7 0.00 0.00 0.00 80 1009.0
20260506033006 78 286 0.0 1.7 0.00 0.00 0.00 80 1008.6
20260506031506 78 240 0.0 1.7 0.00 0.00 0.00 80 1008.3
20260506030005 78 293 0.0 2.6 0.00 0.00 0.00 80 1008.3
20260506024506 78 253 0.0 1.7 0.00 0.00 0.00 80 1008.1
20260506023004 78 228 0.0 3.5 0.00 0.00 0.00 79 1007.9
20260506021503 79 123 0.0 5.2 0.00 0.00 0.00 79 1007.8
20260506020003 79 339 0.0 1.7 0.00 0.00 0.00 78 1007.5
20260506014507 79 197 0.0 6.1 0.00 0.00 0.00 77 1007.3
20260506013005 79 259 0.0 2.6 0.00 0.00 0.00 76 1007.2
20260506011502 80 317 0.0 2.6 0.00 0.00 0.00 76 1006.8
20260506010002 80 210 0.0 2.6 0.00 0.00 0.00 75 1006.6
20260506004501 80 317 0.0 1.7 0.00 0.00 0.00 74 1006.6
20260506003101 80 263 0.0 2.6 0.00 0.00 0.00 74 1006.5
20260506001607 81 232 0.9 4.3 0.00 0.00 0.00 74 1006.4
20260506000159 81 313 0.9 3.5 0.00 0.00 0.00 73 1006.5
20260505234616 82 244 0.9 4.3 0.00 0.00 0.00 72 1006.4
20260505233059 82 277 0.0 3.5 0.00 0.00 0.00 72 1006.3
20260505231600 82 206 0.0 4.3 0.00 0.00 0.00 71 1006.3
20260505230057 82 265 1.7 4.3 0.00 0.00 0.00 72 1006.4
20260505224556 82 337 0.9 3.5 0.00 0.00 0.00 72 1006.4
20260505223059 83 360 0.9 4.3 0.00 0.00 0.00 71 1006.4
20260505221559 83 347 0.9 4.3 0.00 0.00 0.00 70 1006.5
20260505220105 84 187 0.9 5.2 0.00 0.00 0.00 70 1006.6
20260505214601 84 331 0.9 6.1 0.00 0.00 0.00 71 1006.8
20260505213050 83 206 1.7 7.8 0.00 0.00 0.00 70 1006.9
20260505211616 83 266 0.9 4.3 0.00 0.00 0.00 72 1007.1
20260505210047 84 302 0.9 3.5 0.00 0.00 0.00 71 1007.2
20260505204557 84 235 0.9 3.5 0.00 0.00 0.00 70 1007.5
20260505203044 84 234 0.9 3.5 0.00 0.00 0.00 70 1007.6
20260505201542 85 190 0.9 3.5 0.00 0.00 0.00 70 1008.0
20260505200039 84 192 0.9 7.8 0.00 0.00 0.00 71 1008.1
20260505194537 84 247 0.9 5.2 0.00 0.00 0.00 71 1008.3
20260505193036 83 288 0.9 6.1 0.00 0.00 0.00 71 1008.4
20260505191536 84 240 0.9 4.3 0.00 0.00 0.00 71 1008.5
20260505190034 83 252 0.0 3.5 0.00 0.00 0.00 73 1008.5
20260505184540 83 253 0.0 5.2 0.00 0.00 0.00 72 1008.7
20260505183031 83 172 1.7 5.2 0.00 0.00 0.00 72 1008.7
20260505181530 82 237 0.9 8.7 0.00 0.00 0.00 74 1008.8
20260505180026 81 175 0.9 6.1 0.00 0.00 0.00 76 1008.9
20260505174535 80 310 0.9 6.1 0.00 0.00 0.00 76 1009.2
20260505173024 80 201 0.0 2.6 0.00 0.00 0.00 76 1009.3
20260505171532 80 254 0.0 3.5 0.00 0.00 0.00 77 1009.3
20260505170023 80 221 1.7 4.3 0.00 0.00 0.00 76 1009.3
20260505164519 79 178 0.0 3.5 0.00 0.00 0.00 79 1009.4
20260505163016 78 259 1.7 7.0 0.00 0.00 0.00 80 1009.3
20260505161514 78 194 0.9 6.1 0.00 0.00 0.00 80 1009.3
20260505153023 77 200 0.9 6.1 0.00 0.00 0.00 83 1009.0
20260505151507 76 45 0.0 4.3 0.00 0.00 0.00 83 1009.1
20260505124548 72 258 0.0 1.7 0.00 0.00 0.00 88 1008.7
20260505123053 71 216 0.0 0.9 0.00 0.00 0.00 88 1008.7
20260505121544 71 198 0.0 1.7 0.00 0.00 0.00 87 1008.7
20260505120103 71 213 0.0 2.6 0.00 0.00 0.00 87 1008.3
20260505114542 70 355 0.0 0.9 0.00 0.00 0.00 87 1008.1
20260505113040 70 22 0.0 1.7 0.00 0.00 0.00 87 1008.5
20260505111538 70 264 0.0 0.9 0.00 0.00 0.00 87 1008.3
20260505101534 69 237 0.0 0.9 0.00 0.00 0.00 86 1008.3
20260505100035 69 237 0.0 0.0 0.00 0.00 0.00 86 1008.5
20260505094533 70 237 0.0 0.9 0.00 0.00 0.00 85 1008.5
20260505093031 70 230 0.0 0.0 0.00 0.00 0.00 85 1008.5
20260505091529 70 230 0.0 0.9 0.00 0.00 0.00 85 1008.7
20260505090028 70 230 0.0 0.9 0.00 0.00 0.00 85 1008.8
20260505084534 70 201 0.0 0.9 0.00 0.00 0.00 84 1008.8
20260505083026 70 201 0.0 0.9 0.00 0.00 0.00 84 1008.9
20260505081525 70 201 0.0 0.9 0.00 0.00 0.00 84 1009.1
20260505080023 70 201 0.0 0.9 0.00 0.00 0.00 83 1009.2
20260505074520 70 242 0.0 1.7 0.00 0.00 0.00 83 1009.3
20260505073021 70 223 0.0 1.7 0.00 0.00 0.00 82 1009.3
20260505071519 70 288 0.0 1.7 0.00 0.00 0.00 82 1009.4
20260505070016 70 298 0.0 1.7 0.00 0.00 0.00 82 1009.4
20260505064513 70 209 0.0 2.6 0.00 0.00 0.00 82 1009.7
20260505063010 70 213 0.0 2.6 0.00 0.00 0.00 81 1009.9
20260505061509 70 242 0.0 2.6 0.00 0.00 0.00 81 1010.1
20260505060007 70 212 0.0 2.6 0.00 0.00 0.00 80 1010.2
20260505054516 70 105 0.0 1.7 0.00 0.00 0.00 80 1010.1
20260505053005 71 20 0.0 2.6 0.00 0.00 0.00 79 1010.3
20260505051603 71 217 0.0 1.7 0.00 0.00 0.00 79 1010.6